This demonstration page uses our WeatherBlox Daily Observations layout. Learn more.

Left ArrowRight Arrow

39.51506, -84.39828

Hourly Observations for June 3, 2023

Temp ( °F °C ) Dew Point ( °F °C ) Humidity (%) Winds ( mph kmh ) Pressure ( in mb ) Visibility ( mi km ) Precip ( " mm )
12:15 am 00:15 Clear 70 20.9 53 11.6 55 55 N 7 11 29.95 1014 10 16 0.00 0.00
12:35 am 00:35 Clear 71 21.6 51 10.8 50 50 N 6 9 29.95 1014 10 16 0.00 0.00
12:55 am 00:55 Clear 71 21.5 51 10.4 49 49 N 6 9 29.95 1014 10 16 0.00 0.00
1:15 am 01:15 Clear 70 21.1 52 10.9 52 52 N 7 11 29.95 1014 10 16 0.00 0.00
1:35 am 01:35 Clear 68 20.1 53 11.9 59 59 N 5 7 29.96 1014 10 16 0.00 0.00
1:55 am 01:55 Clear 66 18.8 53 11.9 64 64 N 5 7 29.96 1014 10 16 0.00 0.00
2:15 am 02:15 Clear 68 19.8 51 10.8 56 56 N 5 7 29.94 1014 10 16 0.00 0.00
2:35 am 02:35 Clear 64 17.6 55 12.5 72 72 N 5 7 29.95 1014 10 16 0.00 0.00
2:55 am 02:55 Clear 65 18.6 52 11.3 62 62 N 6 9 29.95 1014 10 16 0.00 0.00
3:15 am 03:15 Clear 65 18.6 51 10.8 60 60 N 7 11 29.95 1014 10 16 0.00 0.00
3:35 am 03:35 Clear 66 18.8 51 10.7 59 59 N 7 11 29.95 1014 10 16 0.00 0.00
3:55 am 03:55 Clear 65 18.5 51 10.7 60 60 N 7 11 29.95 1014 10 16 0.00 0.00
4:15 am 04:15 Clear 63 17.3 53 11.5 69 69 N 6 9 29.94 1014 10 16 0.00 0.00
4:35 am 04:35 Clear 63 17 53 11.5 70 70 N 6 9 29.94 1014 10 16 0.00 0.00
4:55 am 04:55 Clear 62 16.4 52 11.3 72 72 N 5 7 29.94 1014 10 16 0.00 0.00
5:15 am 05:15 Clear 61 16.3 55 12.5 78 78 N 5 7 29.94 1014 10 16 0.00 0.00
5:35 am 05:35 Clear 61 15.9 56 13.2 84 84 NNE 6 9 29.94 1014 10 16 0.00 0.00
5:55 am 05:55 Clear 61 16 53 11.5 75 75 Calm 29.95 1014 10 16 0.00 0.00
6:15 am 06:15 Sunny 60 15.8 53 11.4 75 75 Calm 29.95 1014 10 16 0.00 0.00
6:35 am 06:35 Sunny 62 16.4 52 11.1 71 71 N 3 6 29.95 1014 10 16 0.00 0.00
6:55 am 06:55 Sunny 62 16.7 53 11.4 71 71 N 6 9 29.96 1015 10 16 0.00 0.00
7:15 am 07:15 Sunny 62 16.9 56 13.6 81 81 NE 5 7 29.96 1015 10 16 0.00 0.00
7:35 am 07:35 Partly Cloudy 65 18.1 55 12.9 72 72 NE 3 6 29.96 1015 10 16 0.00 0.00
7:55 am 07:55 Partly Cloudy 67 19.3 55 13 67 67 Calm 29.96 1014 10 16 0.00 0.00
8:15 am 08:15 Sunny 69 20.7 55 12.9 61 61 Calm 29.95 1014 10 16 0.00 0.00
8:35 am 08:35 Sunny 73 22.5 54 12.2 52 52 Calm 29.95 1014 10 16 0.00 0.00
8:55 am 08:55 Sunny 74 23.3 53 11.8 48 48 Calm 29.95 1014 10 16 0.00 0.00
9:15 am 09:15 Sunny 75 24 54 12.4 48 48 Calm 29.95 1014 7 11 0.00 0.00
9:35 am 09:35 Sunny 77 24.8 54 12.4 46 46 N 5 7 29.95 1014 10 16 0.00 0.00
9:55 am 09:55 Sunny 78 25.3 55 12.7 46 46 NE 8 13 29.95 1014 10 16 0.00 0.00
10:15 am 10:15 Sunny 79 26.1 55 12.9 44 44 N 7 11 29.94 1014 10 16 0.00 0.00
10:35 am 10:35 Sunny 81 27.4 55 13 41 41 NE 3 6 29.94 1014 10 16 0.00 0.00
10:55 am 10:55 Hazy 83 28.3 56 13.5 40 40 ENE 7 11 29.94 1014 7 11 0.00 0.00
11:15 am 11:15 Sunny 83 28.5 56 13.2 39 39 NNE 5 7 29.94 1014 10 16 0.00 0.00
11:35 am 11:35 Hazy 85 29.6 56 13.4 37 37 N 6 9 29.93 1014 7 11 0.00 0.00
11:55 am 11:55 Hazy 86 30.1 56 13.5 36 36 N 8 13 29.93 1014 7 11 0.00 0.00
12:15 pm 12:15 Hazy 87 30.5 55 12.6 33 33 NE 9 15 29.93 1014 4 6 0.00 0.00
12:35 pm 12:35 Sunny 88 31 54 12.2 32 32 NNE 8 13 29.92 1013 7 11 0.00 0.00
12:55 pm 12:55 Sunny 89 31.5 53 11.5 29 29 NNE 12 19 29.92 1013 7 11 0.00 0.00
1:15 pm 13:15 Hazy 90 32.3 54 12.3 30 30 N 8 13 29.91 1013 4 6 0.00 0.00
1:35 pm 13:35 Hazy 91 32.6 52 11.2 27 27 NNE 7 11 29.91 1013 5 8 0.00 0.00
1:55 pm 13:55 Partly Cloudy 90 32.4 52 10.9 27 27 NE 7 11 29.90 1012 10 16 0.00 0.00
2:15 pm 14:15 Partly Cloudy 91 32.7 51 10.5 26 26 NE 8 13 29.90 1012 10 16 0.00 0.00
2:35 pm 14:35 Partly Cloudy 90 32 51 10.4 27 27 ENE 10 17 29.90 1012 10 16 0.00 0.00
2:55 pm 14:55 Cloudy 87 30.5 51 10.8 30 30 NE 8 13 29.89 1012 10 16 0.00 0.00
3:15 pm 15:15 Partly Cloudy 90 32 50 10 26 26 E 7 11 29.89 1012 7 11 0.00 0.00
3:35 pm 15:35 Partly Cloudy 92 33.6 50 9.8 23 23 E 7 11 29.87 1012 10 16 0.00 0.00
3:55 pm 15:55 Mostly Cloudy with Light Rain 87 30.3 52 11.3 31 31 NE 12 19 29.88 1012 10 16 0.00 0.00
4:15 pm 16:15 Partly Cloudy 87 30.6 53 11.6 31 31 NE 7 11 29.87 1012 10 16 0.00 0.00
4:35 pm 16:35 Partly Cloudy 92 33.1 50 10.1 24 24 NE 6 9 29.86 1011 10 16 0.00 0.00
4:55 pm 16:55 Partly Cloudy 91 33 52 11 26 26 ENE 13 20 29.86 1011 10 16 0.00 0.00
5:15 pm 17:15 Partly Cloudy 90 32.1 53 11.4 28 28 ENE 10 17 29.86 1011 10 16 0.00 0.00
5:35 pm 17:35 Sunny 85 29.6 53 11.6 33 33 NW 5 7 29.86 1011 10 16 0.00 0.00
5:55 pm 17:55 Sunny with Nearby Thunderstorms 87 30.3 55 13 35 35 NW 5 7 29.86 1011 10 16 0.00 0.00
6:15 pm 18:15 Sunny 90 32 53 11.9 29 29 N 6 9 29.86 1011 10 16 0.00 0.00
6:35 pm 18:35 Partly Cloudy 87 30.6 53 11.4 31 31 NE 18 30 29.86 1011 10 16 0.00 0.00
6:55 pm 18:55 Partly Cloudy 84 28.9 54 12 35 35 NNE 12 19 29.86 1011 10 16 0.00 0.00
7:15 pm 19:15 Sunny with Nearby Thunderstorms 83 28.6 55 12.9 38 38 NNE 10 17 29.88 1012 10 16 0.00 0.00
7:35 pm 19:35 Sunny 83 28.1 57 13.7 41 41 N 8 13 29.88 1012 10 16 0.00 0.00
7:55 pm 19:55 Sunny 81 27.1 58 14.5 46 46 NNE 7 11 29.88 1012 10 16 0.00 0.00
8:15 pm 20:15 Sunny 79 26.3 58 14.7 49 49 N 6 9 29.89 1012 10 16 0.00 0.00
8:35 pm 20:35 Sunny 78 25.6 59 14.8 51 51 N 3 6 29.89 1012 10 16 0.00 0.00
8:55 pm 20:55 Sunny 75 24 61 15.9 61 61 NNW 5 7 29.90 1013 10 16 0.00 0.00
9:15 pm 21:15 Clear 74 23.6 60 15.6 61 61 N 5 7 29.91 1013 10 16 0.00 0.00
9:35 pm 21:35 Clear 74 23.2 60 15.7 63 63 N 6 9 29.90 1012 10 16 0.00 0.00
9:55 pm 21:55 Clear 74 23.2 60 15.4 62 62 N 5 7 29.91 1013 10 16 0.00 0.00
10:15 pm 22:15 Clear 72 22.3 61 16 68 68 N 6 9 29.92 1013 10 16 0.00 0.00
10:35 pm 22:35 Clear 73 23 59 15.1 61 61 N 7 11 29.92 1013 10 16 0.00 0.00
10:55 pm 22:55 Clear 73 22.7 59 15 62 62 N 6 9 29.92 1013 10 16 0.00 0.00
11:15 pm 23:15 Clear 72 22.1 59 14.8 63 63 N 6 9 29.92 1013 10 16 0.00 0.00
11:35 pm 23:35 Clear 72 22.2 58 14.6 62 62 N 7 11 29.92 1013 10 16 0.00 0.00
11:55 pm 23:55 Clear 72 22.2 57 14.1 60 60 N 6 9 29.92 1013 10 16 0.00 0.00

Powered by Vaisala Xweather